OneWeb SL0576

operational
NORAD ID: 56065 Int'l Des: 2023-043 Owner: ONEWEBN Country: UK Constellation: oneweb
LEOCIRCULARPOLARONEWEB_TYPE

Über OneWeb SL0576

Beschreibung wird geladen...

Live-Position

3D-Globus wird geladen...

Nächste Überflüge

Höhenverlauf

Altitude vs Time

uPlot chart will show altitude changes over time

Zweizeiliger Elementsatz

1 56065U 23043V 25348.84497053 .00000026 00000-0 35516-4 0 9998
2 56065 87.9050 265.4764 0001704 82.2312 277.9013 13.16594429134705
Epoch: 14. Dez. 2025 • Age: 21 hours

Aktueller Status

Höhe 1201.7 km
Geschwindigkeit 7.25 km/s
Subsatellitenpunkt -4.69°S, 101.71°E
Startdatum 26. März 2023
Alter 2.7 years
Typ internet

Technische Details

Klassifizierung Payload
Masse 148.00 kg
Trockenmasse 140.00 kg
Gesamtmasse 148.00 kg
Länge 1.30 m
Durchmesser 1.00 m
Spannweite 5.00 m
Form Trapezoid+2 pan
Hersteller ONEWUS
Bus-Typ ARROW
Phasenstatus In Orbit
Besitzer/Staat ONEWEBN/UK

Große Konstellationen

Loading constellations...